Location: Appingedam
(53.3222°N, 6.8488°E)
Time: 12:01:42
(UTC+00:00)

CZ-2C R/B - Pass Details

Date: 15 May 2026
Orbit: 334 x 346 km, 97.7° (Epoch: 4 June)

Event Time Altitude Azimuth Distance (km) Brightness Sun altitude
Exits shadow 20:21:31 - 121° (ESE) 1,315 4.1 -7.2°
Reaches altitude 10° 20:21:38 10° 120° (ESE) 1,278 4.1 -7.2°
Maximum altitude 20:23:49 22° 66° (ENE) 803 3.5 -7.4°
Drops below altitude 10° 20:26:01 10° 12° (NNE) 1,288 5.2 -7.6°
Sets 20:28:10 0° 356° (N) 2,134 6.7 -7.8°
